Regional Weather Roundup
Issued by NWS Charleston, SC

Current Version | Previous Version | Graphics & Text | Print | Product List | Glossary On
Versions: 1 2 3 4 5 6 7 8 9 10 11 12 13 14 15 16 17 18 19 20 21 22 23 24 25 26 27 28 29 30 31 32 33 34 35 36 37 38 39 40 41 42 43 44 45 46 47 48 49 50
000 ASUS42 KCHS 020312 RWRCHS REGIONAL WEATHER ROUNDUP NATIONAL WEATHER SERVICE CHARLESTON SC 1100 PM EDT SAT AUG 01 2015 NOTE: "FAIR" INDICATES FEW OR NO CLOUDS BELOW 12,000 FEET WITH NO SIGNIFICANT WEATHER AND/OR OBSTRUCTIONS TO VISIBILITY. NOT ALL STATIONS ARE QUALITY CONTROLLED BY THE NATIONAL WEATHER SERVICE. USE DATA WITH CAUTION...ESPECIALLY DEWPOINT OBSERVATIONS. SCZ027-030-031-034>040-042>050-020400- ...SOUTHEAST SOUTH CAROLINA... CITY SKY/WX TMP DP RH WIND PRES REMARKS N CHARLESTON PTCLDY 77 73 87 S6 29.93R WATERFRONT PRK N/A 80 76 87 VRB3 29.90R MOUNT PLEASANT LGT RAIN 75 75 100 CALM 29.93S JOHNS ISLAND FAIR 79 75 89 S5 29.94R PINOPOLIS NOT AVBL MONCKS CORNER FAIR 77 72 83 CALM 29.93S SUMMERVILLE FAIR 75 75 100 CALM 29.94S BEAUFORT MCAS PTCLDY 81 77 88 CALM 29.93R BEAUFORT ARPT FAIR 79 77 94 CALM 29.92S HILTON HEAD IS PTCLDY 81 77 89 S5 29.93S WALTERBORO CLEAR 77 75 94 SE3 29.94R ALLENDALE FAIR 75 73 94 CALM 29.93R ...SOUTHERN MIDLANDS AND PEE DEE... CITY SKY/WX TMP DP RH WIND PRES REMARKS GEORGETOWN NOT AVBL KINGSTREE NOT AVBL ORANGEBURG CLEAR 77 72 84 CALM 29.94R BARNWELL FAIR 79 73 83 CALM 29.95R AIKEN MOCLDY 79 68 69 S3 29.98R MANNING RAIN 79 72 78 S6 29.93R COLUMBIA PTCLDY 83 69 62 S5 29.92R SUMTER PTCLDY 81 71 71 SW8 29.92R FLORENCE CLOUDY 79 74 84 S7 29.92S MYRTLE BEACH CLEAR 81 72 74 W3 29.95R N MYRTLE BEACH CLEAR 81 73 76 SW9 29.92S $$ GAZ063-065-086>088-099>101-113>116-118-119-134>141-150-020400- ...SOUTHEAST GEORGIA... CITY SKY/WX TMP DP RH WIND PRES REMARKS SAVANNAH ARPT PTCLDY 79 75 87 SE3 29.92R HUNTER AAF PTCLDY 80 78 92 S6 29.90R FORT STEWART NOT AVBL STATESBORO PTCLDY 75 32 20 CALM 29.93R SYLVANIA MOCLDY 76 76 100 CALM 29.94R CLAXTON NOT AVBL ...CSRA...CENTRAL AND FAR SOUTHEAST GEORGIA... CITY SKY/WX TMP DP RH WIND PRES REMARKS THOMSON CLEAR 80 74 82 CALM 29.97S AUGUSTA-BUSH CLEAR 77 74 90 CALM 29.92R AUGUSTA-DANIEL PTCLDY 80 72 76 SE5 29.94R SWAINSBORO FAIR N/A N/A N/A CALM 29.94R VIDALIA PTCLDY 73 73 100 NE3 29.93R EASTMAN FAIR 76 76 100 CALM 29.94F HAZLEHURST FAIR 76 76 100 CALM 29.90S ALMA CLOUDY 75 73 93 CALM 29.90S WAYCROSS CLOUDY 80 79 96 S6 29.89F JESUP FAIR 81 77 89 S3 29.92R BAXLEY FAIR 77 75 94 CALM 29.91R BRUNSWICK CLOUDY 81 73 78 SW6 29.92F SAINT SIMONS CLOUDY 80 74 81 SW13 29.91R $$ SCZ027-028-034-036>038-045-046-048>050-GAZ119-141-020400- ...LAKE AND SUPPLEMENTAL COASTAL OBSERVATIONS... STATION/POSITION TIME TEMP WIND PRES WAVE SWELL AIR SEA DIR/SP/G HT/PER HT/PER/DIR (UTC) (F) (DEG/KT/KT) (MB) (FT/S) (FT/S/D) UPR LAKE MARION NOT AVBL WINYAH BAY NOT AVBL LAKE MURRAY 0200 86 210/ 10/ 12 1012.2R ACE BASIN NERRS NOT AVBL FORT PULASKI 0200 81 86 150/ 8/ 11 1013.4R SAPELO ISLAND 0200 82 200/ 10 1013.0R $$ ANZ835-935-AMZ111-154-330-350-352-354-370-450-454-472-020400- ...C-MAN AND BUOY OBSERVATIONS... STATION/POSITION TIME TEMP WIND PRES WAVE SWELL AIR SEA DIR/SP/G HT/PER HT/PER/DIR (UTC) (F) (DEG/KT/KT) (MB) (FT/S) (FT/S/D) BUOY 41004 0250 81 84 230/ 6/ 8 1013.3R 4/ 6 3/ 6 BUOY 41008 0250 81 83 190/ 14/ 16 1013.1R 3/ 6 2/ 90/10 FOLLY BEACH CMAN 0200 80 180/ 6/ 7 1013.5R CAPERS NEARSHORE 0208 81 200/ 6/ 10 1013.5R FRIPP NEARSHORE NOT AVBL STATION/POSITION TIME TEMP WIND PRES WAVE SWELL AIR SEA DIR/SP/G HT/PER HT/PER/DIR (UTC) (F) (DEG/KT/KT) (MB) (FT/S) (FT/S/D) 5E ST. MARYS GA 0221 83 N/A 3/ 5 FRYING PAN BUOY 0250 82 83 200/ 14/ 16 1013.9R 4/ 7 3/170/ 7 BUOY 41025 0250 83 85 210/ 16/ 17 1012.9S 4/ 7 2/190/ 7 CAPE LOOKOUT NC 0200 80 220/ 6/ 9 1013.3R BUOY 41002 0250 83 81 210/ 16/ 19 1016.1R 7/ 7 3/ 70/12 BUOY 41010 0220 78 84 210/ 10/ 12 1016.7R ST AUGUSTINE FL 0300 76 81 180/ 14/ 15 1015.2R $$

USA.gov is the U.S. government's official web portal to all federal, state and local government web resources and services.